SHT8A EGPH-EGCC

Flight info

Callsign SHT8A
Flight time 0h 57m
Altitude 23000
Route GOSAM P600 FENIK L612 LAKEY
Aircraft A320/M-SDE3FGIJ1KRWXY/SB1

Departure

Time 2026-04-25 20:36
Airport Edinburgh Airport (EGPH)

Arrival

Time 2026-04-25 21:33
Airport Manchester Airport (EGCC)
Time Latitude Longitude Altitude Speed Heading
2026-04-25 20:09 55.94902 -3.36492 117 ft 0 kts 149°
2026-04-25 20:24 55.94920 -3.36510 116 ft 4 kts 156°
2026-04-25 20:24 55.94945 -3.36525 116 ft 4 kts 174°
2026-04-25 20:24 55.94969 -3.36521 116 ft 4 kts 220°
2026-04-25 20:25 55.94977 -3.36506 116 ft 1 kts 239°
2026-04-25 20:25 55.94978 -3.36504 116 ft 0 kts 239°
2026-04-25 20:30 55.94971 -3.36523 116 ft 3 kts 237°
2026-04-25 20:31 55.94955 -3.36570 116 ft 6 kts 239°
2026-04-25 20:31 55.94929 -3.36646 116 ft 9 kts 239°
2026-04-25 20:31 55.94908 -3.36760 116 ft 11 kts 272°
2026-04-25 20:31 55.94918 -3.36908 116 ft 14 kts 249°
2026-04-25 20:32 55.94866 -3.37071 116 ft 17 kts 239°
2026-04-25 20:32 55.94802 -3.37263 116 ft 19 kts 238°
2026-04-25 20:32 55.94728 -3.37479 116 ft 22 kts 239°
2026-04-25 20:32 55.94646 -3.37723 116 ft 24 kts 239°
2026-04-25 20:33 55.94559 -3.37979 116 ft 23 kts 237°
2026-04-25 20:33 55.94471 -3.38234 116 ft 25 kts 239°
2026-04-25 20:33 55.94383 -3.38509 116 ft 26 kts 240°
2026-04-25 20:33 55.94327 -3.38682 116 ft 16 kts 237°
2026-04-25 20:34 55.94298 -3.38764 116 ft 1 kts 239°
2026-04-25 20:34 55.94298 -3.38765 116 ft 0 kts 239°
2026-04-25 20:34 55.94298 -3.38767 116 ft 1 kts 239°
2026-04-25 20:35 55.94289 -3.38792 116 ft 4 kts 239°
2026-04-25 20:35 55.94285 -3.38849 116 ft 6 kts 288°
2026-04-25 20:35 55.94346 -3.38929 115 ft 19 kts 327°
2026-04-25 20:35 55.94433 -3.38916 114 ft 15 kts 55°
2026-04-25 20:36 55.94554 -3.38553 113 ft 66 kts 59°
2026-04-25 20:36 55.94908 -3.37508 112 ft 128 kts 59°
2026-04-25 20:36 55.95446 -3.35905 215 ft 164 kts 59°
2026-04-25 20:36 55.96021 -3.34229 906 ft 160 kts 53°
2026-04-25 20:37 55.96910 -3.32687 991 ft 201 kts 41°
2026-04-25 20:37 55.98017 -3.30945 900 ft 221 kts 41°
2026-04-25 20:37 55.99261 -3.29029 797 ft 251 kts 36°
2026-04-25 20:37 56.00942 -3.28104 1479 ft 260 kts 356°
2026-04-25 20:38 56.02628 -3.29183 2449 ft 263 kts 321°
2026-04-25 20:38 56.03671 -3.31831 3421 ft 266 kts 285°
2026-04-25 20:38 56.03743 -3.35116 4389 ft 268 kts 259°
2026-04-25 20:38 56.03256 -3.38354 5347 ft 272 kts 250°
2026-04-25 20:39 56.02600 -3.41537 6258 ft 276 kts 249°
2026-04-25 20:39 56.01926 -3.44777 7127 ft 280 kts 250°
2026-04-25 20:39 56.01294 -3.48097 7958 ft 284 kts 252°
2026-04-25 20:39 56.00895 -3.50388 8500 ft 287 kts 253°
2026-04-25 20:40 56.00164 -3.54974 9519 ft 292 kts 255°
2026-04-25 20:40 55.99641 -3.58504 10199 ft 300 kts 255°
2026-04-25 20:40 55.99102 -3.62260 10398 ft 323 kts 255°
2026-04-25 20:40 55.98534 -3.66268 10613 ft 341 kts 256°
2026-04-25 20:41 55.97871 -3.70394 11110 ft 348 kts 247°
2026-04-25 20:41 55.96600 -3.74050 11657 ft 352 kts 227°
2026-04-25 20:41 55.94663 -3.76771 12210 ft 356 kts 207°
2026-04-25 20:41 55.92300 -3.78099 12738 ft 360 kts 186°
2026-04-25 20:42 55.89803 -3.78313 13247 ft 363 kts 182°
2026-04-25 20:42 55.87258 -3.78432 13747 ft 366 kts 181°
2026-04-25 20:42 55.84701 -3.78536 14220 ft 369 kts 181°
2026-04-25 20:42 55.82126 -3.78637 14677 ft 372 kts 181°
2026-04-25 20:43 55.79533 -3.78743 15121 ft 375 kts 181°
2026-04-25 20:43 55.76907 -3.78855 15554 ft 378 kts 181°
2026-04-25 20:43 55.74273 -3.78972 15974 ft 381 kts 181°
2026-04-25 20:43 55.71617 -3.79093 16380 ft 383 kts 182°
2026-04-25 20:44 55.68934 -3.79224 16773 ft 386 kts 182°
2026-04-25 20:44 55.66237 -3.79360 17149 ft 389 kts 182°
2026-04-25 20:44 55.63523 -3.79496 17516 ft 391 kts 182°
2026-04-25 20:44 55.60788 -3.79628 17873 ft 394 kts 182°
2026-04-25 20:45 55.58047 -3.79753 18218 ft 396 kts 181°
2026-04-25 20:45 55.55278 -3.79875 18558 ft 399 kts 181°
2026-04-25 20:45 55.52492 -3.80000 18889 ft 401 kts 181°
2026-04-25 20:45 55.49696 -3.80131 19207 ft 403 kts 182°
2026-04-25 20:46 55.46884 -3.80263 19512 ft 406 kts 182°
2026-04-25 20:46 55.44084 -3.80391 19803 ft 408 kts 181°
2026-04-25 20:46 55.41243 -3.80519 20098 ft 410 kts 181°
2026-04-25 20:46 55.38377 -3.80651 20377 ft 412 kts 182°
2026-04-25 20:47 55.35506 -3.80786 20640 ft 414 kts 182°
2026-04-25 20:47 55.32624 -3.80920 20889 ft 416 kts 181°
2026-04-25 20:47 55.29725 -3.81051 21128 ft 418 kts 181°
2026-04-25 20:47 55.26813 -3.81180 21360 ft 419 kts 181°
2026-04-25 20:48 55.23895 -3.80908 21578 ft 421 kts 172°
2026-04-25 20:48 55.21032 -3.79728 21795 ft 423 kts 161°
2026-04-25 20:48 55.18346 -3.77637 21998 ft 425 kts 152°
2026-04-25 20:48 55.15742 -3.75151 22191 ft 427 kts 152°
2026-04-25 20:49 55.13130 -3.72651 22386 ft 428 kts 152°
2026-04-25 20:49 55.10512 -3.70148 22567 ft 430 kts 152°
2026-04-25 20:49 55.07878 -3.67636 22744 ft 431 kts 152°
2026-04-25 20:49 55.05241 -3.65128 22925 ft 432 kts 152°
2026-04-25 20:50 55.02595 -3.62622 23001 ft 435 kts 152°
2026-04-25 20:50 54.99924 -3.60101 23010 ft 439 kts 152°
2026-04-25 20:50 54.97232 -3.57564 23009 ft 440 kts 152°
2026-04-25 20:50 54.94536 -3.55023 23009 ft 440 kts 152°
2026-04-25 20:51 54.91845 -3.52490 23009 ft 440 kts 152°
2026-04-25 20:51 54.89153 -3.49956 23009 ft 440 kts 152°
2026-04-25 20:51 54.86492 -3.47449 23009 ft 440 kts 152°
2026-04-25 20:51 54.83798 -3.44921 23009 ft 440 kts 152°
2026-04-25 20:52 54.81104 -3.42403 23009 ft 440 kts 152°
2026-04-25 20:52 54.79286 -3.40707 23008 ft 440 kts 152°
2026-04-25 20:52 54.75717 -3.37378 23006 ft 440 kts 152°
2026-04-25 20:52 54.73020 -3.34865 23004 ft 440 kts 152°
2026-04-25 20:53 54.70293 -3.32459 23003 ft 439 kts 154°
2026-04-25 20:53 54.67477 -3.30220 23001 ft 439 kts 156°
2026-04-25 20:53 54.64707 -3.28177 22999 ft 439 kts 158°
2026-04-25 20:53 54.61890 -3.26175 23007 ft 439 kts 158°
2026-04-25 20:54 54.59057 -3.24169 23009 ft 440 kts 158°
2026-04-25 20:54 54.56229 -3.22135 23009 ft 440 kts 157°
2026-04-25 20:54 54.53418 -3.20073 23009 ft 440 kts 157°
2026-04-25 20:54 54.50610 -3.17981 23009 ft 440 kts 156°
2026-04-25 20:55 54.47805 -3.15869 23009 ft 440 kts 156°
2026-04-25 20:55 54.45000 -3.13755 23009 ft 440 kts 156°
2026-04-25 20:55 54.42197 -3.11649 23009 ft 440 kts 156°
2026-04-25 20:55 54.39351 -3.09527 23009 ft 440 kts 157°
2026-04-25 20:56 54.36596 -3.07489 22965 ft 438 kts 157°
2026-04-25 20:56 54.33795 -3.05425 22217 ft 436 kts 157°
2026-04-25 20:56 54.31013 -3.03384 21491 ft 433 kts 157°
2026-04-25 20:56 54.28253 -3.01361 20917 ft 427 kts 157°
2026-04-25 20:57 54.25538 -2.99367 20330 ft 423 kts 157°
2026-04-25 20:57 54.22953 -2.97105 19775 ft 417 kts 148°
2026-04-25 20:57 54.20526 -2.94384 19120 ft 414 kts 147°
2026-04-25 20:57 54.18127 -2.91684 18497 ft 411 kts 147°
2026-04-25 20:58 54.15750 -2.89009 17877 ft 407 kts 147°
2026-04-25 20:58 54.13400 -2.86366 17309 ft 402 kts 147°
2026-04-25 20:58 54.11076 -2.83754 16659 ft 399 kts 147°
2026-04-25 20:58 54.08774 -2.81169 16092 ft 393 kts 147°
2026-04-25 20:59 54.06506 -2.78630 15493 ft 389 kts 147°
2026-04-25 20:59 54.04255 -2.76118 14886 ft 385 kts 147°
2026-04-25 20:59 54.02026 -2.73639 14308 ft 381 kts 147°
2026-04-25 20:59 53.99814 -2.71185 13736 ft 376 kts 147°
2026-04-25 21:00 53.97630 -2.68770 13170 ft 372 kts 147°
2026-04-25 21:00 53.96928 -2.67994 12987 ft 371 kts 147°
2026-04-25 21:00 53.91317 -2.61787 11991 ft 347 kts 147°
2026-04-25 21:01 53.89306 -2.59561 11830 ft 334 kts 147°
2026-04-25 21:01 53.87415 -2.57470 11705 ft 323 kts 147°
2026-04-25 21:01 53.85579 -2.55442 11453 ft 308 kts 147°
2026-04-25 21:01 53.83805 -2.53487 10880 ft 302 kts 147°
2026-04-25 21:02 53.82052 -2.51554 10260 ft 299 kts 147°
2026-04-25 21:02 53.80321 -2.49648 9636 ft 295 kts 147°
2026-04-25 21:02 53.78604 -2.47759 9015 ft 292 kts 147°
2026-04-25 21:02 53.76908 -2.45896 8404 ft 289 kts 147°
2026-04-25 21:03 53.75237 -2.44067 8067 ft 286 kts 147°
2026-04-25 21:03 53.73589 -2.42265 7994 ft 272 kts 147°
2026-04-25 21:03 53.72020 -2.40553 8084 ft 267 kts 148°
2026-04-25 21:03 53.70471 -2.38863 8175 ft 265 kts 148°
2026-04-25 21:04 53.68928 -2.37180 8215 ft 265 kts 148°
2026-04-25 21:04 53.67375 -2.35488 8220 ft 265 kts 148°
2026-04-25 21:04 53.65828 -2.33814 8222 ft 264 kts 148°
2026-04-25 21:04 53.64277 -2.32154 8222 ft 264 kts 148°
2026-04-25 21:05 53.62722 -2.30494 8223 ft 264 kts 148°
2026-04-25 21:05 53.61695 -2.29398 8222 ft 264 kts 149°
2026-04-25 21:05 53.60011 -2.28235 8221 ft 262 kts 174°
2026-04-25 21:05 53.57684 -2.28984 8223 ft 258 kts 213°
2026-04-25 21:06 53.56794 -2.30253 8221 ft 249 kts 233°
2026-04-25 21:06 53.55906 -2.32711 8223 ft 245 kts 244°
2026-04-25 21:06 53.55146 -2.35273 8223 ft 245 kts 245°
2026-04-25 21:06 53.54641 -2.37018 8223 ft 245 kts 245°
2026-04-25 21:07 53.53658 -2.40434 8223 ft 245 kts 245°
2026-04-25 21:07 53.52917 -2.43013 8222 ft 245 kts 245°
2026-04-25 21:07 53.52177 -2.45592 8220 ft 245 kts 245°
2026-04-25 21:07 53.51437 -2.48168 8222 ft 245 kts 245°
2026-04-25 21:08 53.50699 -2.50739 8222 ft 245 kts 245°
2026-04-25 21:08 53.49955 -2.53326 8222 ft 245 kts 245°
2026-04-25 21:08 53.49215 -2.55900 8222 ft 245 kts 245°
2026-04-25 21:08 53.48474 -2.58477 8219 ft 245 kts 244°
2026-04-25 21:09 53.47017 -2.63649 7951 ft 244 kts 245°
2026-04-25 21:09 53.46297 -2.66216 7667 ft 243 kts 245°
2026-04-25 21:09 53.45580 -2.68774 7392 ft 242 kts 245°
2026-04-25 21:10 53.44865 -2.71326 7121 ft 241 kts 245°
2026-04-25 21:10 53.44165 -2.73826 6852 ft 239 kts 245°
2026-04-25 21:10 53.43352 -2.76245 6559 ft 239 kts 227°
2026-04-25 21:10 53.41983 -2.77740 6276 ft 237 kts 195°
2026-04-25 21:11 53.40350 -2.77870 6030 ft 235 kts 173°
2026-04-25 21:11 53.38726 -2.77454 5993 ft 239 kts 171°
2026-04-25 21:11 53.37079 -2.76962 5995 ft 240 kts 170°
2026-04-25 21:11 53.35435 -2.76452 5996 ft 240 kts 170°
2026-04-25 21:12 53.33801 -2.75939 5997 ft 240 kts 170°
2026-04-25 21:12 53.32160 -2.75431 5996 ft 240 kts 170°
2026-04-25 21:12 53.30521 -2.74924 5999 ft 240 kts 170°
2026-04-25 21:12 53.29405 -2.74577 6001 ft 240 kts 170°
2026-04-25 21:13 53.27232 -2.73889 5998 ft 240 kts 170°
2026-04-25 21:13 53.25593 -2.73368 5998 ft 240 kts 170°
2026-04-25 21:13 53.23958 -2.72825 5998 ft 240 kts 165°
2026-04-25 21:13 53.22498 -2.71532 5998 ft 241 kts 143°
2026-04-25 21:14 53.21185 -2.69766 6001 ft 241 kts 140°
2026-04-25 21:14 53.19906 -2.67959 5866 ft 240 kts 140°
2026-04-25 21:14 53.18640 -2.66159 5561 ft 239 kts 140°
2026-04-25 21:14 53.17383 -2.64368 5273 ft 238 kts 140°
2026-04-25 21:15 53.16124 -2.62578 5039 ft 235 kts 140°
2026-04-25 21:15 53.14928 -2.60698 4993 ft 237 kts 126°
2026-04-25 21:15 53.14110 -2.58299 4993 ft 239 kts 116°
2026-04-25 21:15 53.13616 -2.55684 5003 ft 239 kts 92°
2026-04-25 21:16 53.13973 -2.53028 4990 ft 238 kts 60°
2026-04-25 21:16 53.15098 -2.51054 4691 ft 235 kts 28°
2026-04-25 21:16 53.16595 -2.50051 4459 ft 229 kts 17°
2026-04-25 21:16 53.18142 -2.49698 4210 ft 224 kts 349°
2026-04-25 21:17 53.19543 -2.50702 3943 ft 220 kts 324°
2026-04-25 21:17 53.20741 -2.52166 3805 ft 212 kts 323°
2026-04-25 21:17 53.22090 -2.53018 3567 ft 210 kts
2026-04-25 21:17 53.23411 -2.52174 3300 ft 207 kts 46°
2026-04-25 21:18 53.24105 -2.50103 3086 ft 206 kts 68°
2026-04-25 21:18 53.24867 -2.48070 3000 ft 208 kts 50°
2026-04-25 21:18 53.25813 -2.46218 2949 ft 211 kts 50°
2026-04-25 21:18 53.26768 -2.44296 2418 ft 222 kts 51°
2026-04-25 21:19 53.27761 -2.42262 1969 ft 228 kts 51°
2026-04-25 21:19 53.28764 -2.40201 1634 ft 228 kts 51°
2026-04-25 21:19 53.29740 -2.38191 1317 ft 216 kts 51°
2026-04-25 21:19 53.30657 -2.36304 1030 ft 204 kts 51°
2026-04-25 21:20 53.31524 -2.34517 766 ft 191 kts 51°
2026-04-25 21:20 53.32064 -2.33404 618 ft 180 kts 51°
2026-04-25 21:20 53.33059 -2.31352 586 ft 171 kts 51°
2026-04-25 21:20 53.33692 -2.29679 1147 ft 174 kts 77°
2026-04-25 21:21 53.33469 -2.27709 1516 ft 185 kts 127°
2026-04-25 21:21 53.32342 -2.26605 1697 ft 199 kts 175°
2026-04-25 21:21 53.31036 -2.27270 2034 ft 203 kts 217°
2026-04-25 21:21 53.29996 -2.28863 2431 ft 204 kts 224°
2026-04-25 21:22 53.28767 -2.30015 2802 ft 207 kts 192°
2026-04-25 21:22 53.27324 -2.30220 3268 ft 209 kts 181°
2026-04-25 21:22 53.25861 -2.30248 3838 ft 213 kts 180°
2026-04-25 21:22 53.24376 -2.30251 3974 ft 213 kts 180°
2026-04-25 21:23 53.22847 -2.30255 4006 ft 228 kts 181°
2026-04-25 21:23 53.21245 -2.30245 4006 ft 232 kts 180°
2026-04-25 21:23 53.19630 -2.30224 4003 ft 232 kts 180°
2026-04-25 21:23 53.18012 -2.30200 4005 ft 232 kts 180°
2026-04-25 21:24 53.16398 -2.30174 4005 ft 232 kts 180°
2026-04-25 21:24 53.14816 -2.30560 3998 ft 230 kts 205°
2026-04-25 21:24 53.13604 -2.32228 4002 ft 228 kts 237°
2026-04-25 21:24 53.12833 -2.34547 4001 ft 229 kts 244°
2026-04-25 21:25 53.12148 -2.36944 3999 ft 230 kts 245°
2026-04-25 21:25 53.11473 -2.39356 3998 ft 230 kts 245°
2026-04-25 21:25 53.10807 -2.41745 4003 ft 230 kts 245°
2026-04-25 21:25 53.10127 -2.44186 3996 ft 230 kts 245°
2026-04-25 21:26 53.09554 -2.46627 3996 ft 230 kts 261°
2026-04-25 21:26 53.09670 -2.49248 3999 ft 229 kts 288°
2026-04-25 21:26 53.10343 -2.51638 4001 ft 230 kts 301°
2026-04-25 21:26 53.11392 -2.53637 3997 ft 231 kts 326°
2026-04-25 21:27 53.12784 -2.54895 3889 ft 221 kts 334°
2026-04-25 21:27 53.14132 -2.55923 3744 ft 199 kts 335°
2026-04-25 21:27 53.15339 -2.56825 3515 ft 188 kts 335°
2026-04-25 21:27 53.16519 -2.57704 3158 ft 183 kts 335°
2026-04-25 21:28 53.17761 -2.58151 2990 ft 184 kts
2026-04-25 21:28 53.19001 -2.57598 2999 ft 188 kts 18°
2026-04-25 21:28 53.20225 -2.56837 3004 ft 188 kts 22°
2026-04-25 21:28 53.21279 -2.55555 2994 ft 190 kts 49°
2026-04-25 21:29 53.22117 -2.53843 2999 ft 192 kts 51°
2026-04-25 21:29 53.22925 -2.52185 2996 ft 176 kts 51°
2026-04-25 21:29 53.23686 -2.50624 3007 ft 171 kts 51°
2026-04-25 21:29 53.24432 -2.49097 2899 ft 169 kts 51°
2026-04-25 21:30 53.25171 -2.47581 2724 ft 168 kts 51°
2026-04-25 21:30 53.25911 -2.46064 2502 ft 167 kts 51°
2026-04-25 21:30 53.26643 -2.44560 2270 ft 167 kts 51°
2026-04-25 21:30 53.27128 -2.43564 2127 ft 167 kts 51°
2026-04-25 21:31 53.28107 -2.41553 1825 ft 167 kts 51°
2026-04-25 21:31 53.28836 -2.40054 1599 ft 165 kts 51°
2026-04-25 21:31 53.29530 -2.38626 1378 ft 153 kts 51°
2026-04-25 21:31 53.30187 -2.37273 1177 ft 147 kts 51°
2026-04-25 21:32 53.30825 -2.35960 977 ft 143 kts 51°
2026-04-25 21:32 53.31444 -2.34684 788 ft 140 kts 51°
2026-04-25 21:32 53.32052 -2.33431 593 ft 137 kts 50°
2026-04-25 21:32 53.32652 -2.32204 452 ft 134 kts 51°
2026-04-25 21:33 53.33245 -2.30970 297 ft 137 kts 52°
2026-04-25 21:33 53.33829 -2.29751 222 ft 125 kts 41°
2026-04-25 21:33 53.34284 -2.28820 222 ft 81 kts 53°
2026-04-25 21:33 53.34496 -2.28371 224 ft 23 kts 52°
2026-04-25 21:34 53.34616 -2.28225 230 ft 21 kts 25°
2026-04-25 21:34 53.34762 -2.28132 232 ft 23 kts 20°
2026-04-25 21:34 53.34883 -2.28040 235 ft 8 kts 37°
2026-04-25 21:34 53.34885 -2.28037 235 ft 0 kts 37°
2026-04-25 21:35 53.34890 -2.28029 234 ft 2 kts 42°
2026-04-25 21:35 53.34906 -2.28003 234 ft 4 kts 44°
2026-04-25 21:36 53.34929 -2.27955 238 ft 6 kts 53°
2026-04-25 21:36 53.34959 -2.27887 241 ft 9 kts 53°
2026-04-25 21:36 53.35000 -2.27796 237 ft 11 kts 51°
2026-04-25 21:36 53.35053 -2.27687 239 ft 13 kts 51°
2026-04-25 21:37 53.35115 -2.27558 241 ft 15 kts 51°
2026-04-25 21:37 53.35162 -2.27463 242 ft 17 kts 50°
2026-04-25 21:37 53.35260 -2.27263 246 ft 17 kts 47°
2026-04-25 21:37 53.35373 -2.27209 250 ft 17 kts 341°
2026-04-25 21:38 53.35467 -2.27322 256 ft 17 kts 322°
2026-04-25 21:38 53.35540 -2.27419 255 ft 10 kts 322°
2026-04-25 21:38 53.35600 -2.27498 256 ft 12 kts 322°
2026-04-25 21:38 53.35678 -2.27601 256 ft 16 kts 321°
2026-04-25 21:39 53.35761 -2.27687 255 ft 7 kts 336°
2026-04-25 21:39 53.35763 -2.27689 255 ft 0 kts 336°
2026-04-25 21:39 53.35775 -2.27698 255 ft 4 kts 333°
2026-04-25 21:39 53.35806 -2.27732 255 ft 7 kts 322°
2026-04-25 21:40 53.35848 -2.27806 255 ft 10 kts 318°
2026-04-25 21:40 53.35924 -2.27821 255 ft 13 kts 13°
2026-04-25 21:40 53.36022 -2.27829 255 ft 16 kts 347°
2026-04-25 21:40 53.36121 -2.27943 255 ft 18 kts 315°
2026-04-25 21:41 53.36207 -2.28095 255 ft 16 kts 317°
2026-04-25 21:41 53.36237 -2.28140 255 ft 0 kts 318°